Location: C�mpuri de-Sus
(45.9500°N, 22.5500°E)
Time: 13:29:05
(UTC+00:00)

USA 229 - Pass Details

Date: 24 October 2021
Orbit: 946 x 1266 km, 63.4° (Epoch: 25 November)

Event Time Altitude Azimuth Distance (km) Brightness Sun altitude
Rises 17:25:47 0° 218° (SW) 3,629 7.0 -21.1°
Reaches altitude 10° 17:28:16 10° 219° (SW) 2,708 6.2 -21.5°
Maximum altitude 17:34:37 86° 307° (NW) 1,021 3.5 -22.6°
Enters shadow 17:39:31 20° 37° (NE) 2,209 5.1 -23.4°
